Ashtabula, OH

6:46 AM EST on December 14, 2019 (GMT -0500)
Ashtabula County

Weather History for KHZY - September, 2019

Change the Weather History Date:

Monday, September 9, 2019

  Actual Average (WUND) Record (WUND)
Temperature  
Mean Temperature 60 °F -  
Max Temperature 72 °F - - (-1)
Min Temperature 50 °F - - (-1)
Degree Days  
Heating Degree Days 4    
Growing Degree Days 10 (Base 50)    
Moisture  
Dew Point 53 °F    
Average Humidity 84    
Maximum Humidity 100    
Minimum Humidity 47    
Precipitation  
Precipitation 0.00 in - - ()
Sea Level Pressure  
Sea Level Pressure 30.26 in    
Wind  
Wind Speed 1 mph (ENE)    
Max Wind Speed 7 mph    
Max Gust Speed -    
Visibility 9 miles    
Events      
Averages and records for this station are not official NWS values.
T = Trace of Precipitation, MM = Missing Value Source: NWS Daily Summary

Daily Weather History Graph

Daily Weather History Graph

Search for Another Location

Airport or City:

Astronomy

Sep. 09, 2019 Rise Set
Actual Time 6:56 AM EDT 7:42 PM EDT
Civil Twilight 6:28 AM EDT 8:11 PM EDT
Nautical Twilight 5:54 AM EDT 8:44 PM EDT
Astronomical Twilight 5:20 AM EDT 9:18 PM EDT
Moon 5:41 PM EDT (9/9) 2:22 AM EDT (9/9)
Length of Visible Light 13h 42m
Length of Day
12h 46m
Waxing Gibbous, 83% of the Moon is Illuminated
Sep 9
Waxing Gibbous
Sep 14
Full
Sep 21
Last Quarter
Sep 28
New
Oct 5
First Quarter

Hourly Weather History & Observations

Time (EDT) Temp. Dew Point Humidity Pressure Visibility Wind Dir Wind Speed Gust Speed Precip Events Conditions
12:53 AM 54.0 °F 54.0 °F 100% 30.21 in 10.0 mi Calm Calm - N/A   Clear
1:53 AM 53.1 °F 53.1 °F 100% 30.22 in 10.0 mi Calm Calm - N/A   Clear
2:53 AM 54.0 °F 54.0 °F 100% 30.22 in 9.0 mi Calm Calm - N/A   Clear
3:53 AM 53.1 °F 52.0 °F 96% 30.22 in 8.0 mi Calm Calm - N/A   Clear
4:53 AM 52.0 °F 52.0 °F 100% 30.22 in 8.0 mi Calm Calm - N/A   Clear
5:27 AM 51.1 °F 51.1 °F 100% 30.22 in 1.8 mi Calm Calm - N/A   Clear
5:37 AM 50.0 °F 50.0 °F 100% 30.22 in 3.0 mi Calm Calm - N/A   Clear
5:53 AM 51.1 °F 51.1 °F 100% 30.23 in 8.0 mi Calm Calm - N/A   Clear
6:04 AM 51.1 °F 51.1 °F 100% 30.23 in 2.5 mi Calm Calm - N/A   Clear
6:53 AM 51.1 °F 51.1 °F 100% 30.24 in 9.0 mi Calm Calm - N/A   Clear
7:53 AM 53.1 °F 53.1 °F 100% 30.25 in 10.0 mi East 3.5 mph - N/A   Clear
8:53 AM 55.9 °F 54.0 °F 93% 30.27 in 10.0 mi East 5.8 mph - N/A   Scattered Clouds
9:53 AM 59.0 °F 55.9 °F 90% 30.30 in 10.0 mi Calm Calm - N/A   Overcast
10:53 AM 64.9 °F 55.0 °F 70% 30.29 in 10.0 mi East 5.8 mph - N/A   Mostly Cloudy
11:53 AM 66.0 °F 53.1 °F 63% 30.29 in 10.0 mi ESE 3.5 mph - N/A   Overcast
12:53 PM 68.0 °F 53.1 °F 59% 30.30 in 10.0 mi North 4.6 mph - N/A   Overcast
1:53 PM 68.0 °F 54.0 °F 61% 30.30 in 10.0 mi NNE 6.9 mph - N/A   Overcast
2:53 PM 69.1 °F 51.1 °F 53% 30.27 in 10.0 mi Variable 5.8 mph - N/A   Partly Cloudy
3:53 PM 71.1 °F 51.1 °F 49% 30.26 in 10.0 mi Variable 4.6 mph - N/A   Clear
4:53 PM 71.1 °F 50.0 °F 47% 30.26 in 10.0 mi Calm Calm - N/A   Clear
5:53 PM 69.1 °F 55.0 °F 61% 30.27 in 10.0 mi Variable 4.6 mph - N/A   Clear
6:53 PM 66.0 °F 54.0 °F 65% 30.27 in 10.0 mi NE 4.6 mph - N/A   Clear
8:53 PM 57.0 °F 55.0 °F 93% 30.28 in 10.0 mi Calm Calm - N/A   Clear
9:53 PM 55.9 °F 54.0 °F 93% 30.29 in 10.0 mi Calm Calm - N/A   Clear
10:53 PM 55.0 °F 54.0 °F 96% 30.28 in 10.0 mi Calm Calm - N/A   Clear
11:53 PM 55.0 °F 53.1 °F 93% 30.28 in 10.0 mi East 4.6 mph - N/A   Clear